Regional Weather Roundup
Issued by NWS Nashville, TN

Home | Current Version | Previous Version | Text Only | Print | Product List | Glossary On
Versions: 1 2 3 4 5 6 7 8 9 10 11 12 13 14 15 16 17 18 19 20 21 22 23 24 25 26 27 28 29 30 31 32 33 34 35 36 37 38 39 40 41 42 43 44 45 46 47 48 49 50
000
ASUS44 KOHX 310610
RWROHX
MIDDLE TENNESSEE HOURLY WEATHER ROUNDUP
NATIONAL WEATHER SERVICE NASHVILLE TN
100 AM CDT MON AUG 31 2015

NOTE: "FAIR" INDICATES FEW OR NO CLOUDS BELOW 12,000 FEET WITH
NO SIGNIFICANT WEATHER AND/OR OBSTRUCTIONS TO VISIBILITY.

* THESE REPORTS ARE NOT UNDER NWS QUALITY CONTROL AND MAY NOT
  REPORT WEATHER SUCH AS PRECIPITATION AND FOG.


TNZ005>011-023>034-057-059-062>066-078-080-310700
...NORTHERN MIDDLE TENNESSEE...

CITY           SKY/WX    TMP DP  RH WIND       PRES   REMARKS
CLARKSVILLE      N/A     66  65  96 CALM      30.07F FOG
CROSSVILLE     MOCLDY    68  63  84 CALM      30.16S HAZE
DICKSON          N/A     64  64 100 CALM      30.08F
NASHVILLE        N/A     70  65  84 S3        30.09F
SMYRNA           N/A     68  67  96 CALM      30.10F
$$
TNZ056-058-060-061-075>077-079-093>097-310700
...SOUTHERN MIDDLE TENNESSEE...

CITY           SKY/WX    TMP DP  RH WIND       PRES   REMARKS
COLUMBIA       CLEAR     66  66 100 S3        30.07F
LEWISBURG        N/A     64  62  93 CALM      30.09F
MCMINNVILLE    CLOUDY    64  64 100 CALM      30.12S VSB 1/2
SHELBYVILLE      N/A     66  64  94 SE3       30.11F VSB 1/2
TULLAHOMA      PTCLDY    63  63 100 CALM      30.13S
WINCHESTER     CLEAR     64  64 100 CALM      30.11F
$$


...KEY TO REMARKS...
VSB - VISIBILITY IN MILES
WCI - WIND CHILL INDEX
HX  - HEAT INDEX



USA.gov is the U.S. government's official web portal to all federal, state and local government web resources and services.